Weather History for KCON - August, 2013

Change the Weather History Date:

Thursday, August 8, 2013

  Actual Average Record
Temperature  
Mean Temperature 74 °F 70 °F  
Max Temperature 84 °F 82 °F 95 °F (2001)
Min Temperature 64 °F 57 °F 41 °F (1869)
Degree Days  
Heating Degree Days 0 1  
Month to date heating degree days 10 3  
Since 1 June heating degree days 84 105  
Since 1 July heating degree days 12 20  
Cooling Degree Days 9 5  
Month to date cooling degree days 24 43  
Year to date cooling degree days 420 317  
Since 1 June cooling degree days 399 299  
Growing Degree Days 23 (Base 50)    
Moisture  
Dew Point 64 °F    
Average Humidity 73    
Maximum Humidity 87    
Minimum Humidity 58    
Precipitation  
Precipitation 0.00 in 0.11 in 2.24 in (1937)
Month to date precipitation 0.73 0.92  
Year to date precipitation 26.97 24.01  
Snow  
Snow 0.00 in 0.00 in 0.00 in (2002)
Month to date snowfall 0.0 0.0  
Since 1 June snowfall 0.0 0.0  
Since 1 July snowfall 0.0 0.0  
Snow Depth 0.00 in    
Sea Level Pressure  
Sea Level Pressure 30.04 in    
Wind  
Wind Speed 7 mph (South)    
Max Wind Speed 14 mph    
Max Gust Speed 20 mph    
Visibility 10 miles    
Events      
T = Trace of Precipitation, MM = Missing Value Source: NWS Daily Summary

Daily Weather History Graph

Daily Weather History Graph

Search for Another Location

Airport or City:

Trip Planner

Search our weather history database for the weather conditions in past years. The results will help you decide how hot, cold, wet, or windy it might be!

Date:

Astronomy

Aug. 08, 2013 Rise Set
Actual Time 5:44 AM EDT 7:58 PM EDT
Civil Twilight 5:12 AM EDT 8:29 PM EDT
Nautical Twilight 4:33 AM EDT 9:08 PM EDT
Astronomical Twilight 3:50 AM EDT 9:51 PM EDT
Moon 7:32 AM EDT (8/8) 8:29 PM EDT (8/8)
Length of Visible Light 15h 17m
Length of Day
14h 14m
Waxing Crescent, 3% of the Moon is Illuminated
Aug 8
Waxing Crescent
Aug 14
First Quarter
Aug 20
Full
Aug 28
Last Quarter
Sep 5
New

Hourly Weather History & Observations

Time (EDT) Temp. Heat Index Dew Point Humidity Pressure Visibility Wind Dir Wind Speed Gust Speed Precip Events Conditions
12:51 AM 64.9 °F - 57.0 °F 75% 30.10 in 10.0 mi SSE 5.8 mph - N/A   Overcast
1:51 AM 64.9 °F - 57.0 °F 75% 30.09 in 10.0 mi South 10.4 mph - N/A   Overcast
2:25 AM 64.4 °F - 57.2 °F 77% 30.08 in 10.0 mi SSE 8.1 mph - N/A   Overcast
2:51 AM 64.9 °F - 57.0 °F 75% 30.08 in 10.0 mi SSE 4.6 mph - N/A   Overcast
3:51 AM 64.9 °F - 57.9 °F 78% 30.07 in 10.0 mi SSE 9.2 mph - N/A   Overcast
4:51 AM 64.0 °F - 57.9 °F 80% 30.05 in 10.0 mi South 6.9 mph - N/A   Overcast
5:51 AM 64.0 °F - 59.0 °F 84% 30.05 in 10.0 mi SSE 6.9 mph - N/A   Overcast
6:51 AM 64.9 °F - 60.1 °F 84% 30.06 in 10.0 mi SSE 3.5 mph - N/A   Overcast
7:37 AM 64.4 °F - 60.8 °F 88% 30.07 in 10.0 mi SSE 3.5 mph - N/A   Overcast
7:51 AM 64.9 °F - 61.0 °F 87% 30.06 in 10.0 mi SSE 5.8 mph - N/A   Overcast
8:51 AM 66.9 °F - 63.0 °F 87% 30.06 in 10.0 mi SSE 5.8 mph - N/A   Overcast
9:51 AM 69.1 °F - 64.9 °F 87% 30.06 in 10.0 mi South 5.8 mph - N/A   Overcast
10:13 AM 71.6 °F - 66.2 °F 83% 30.06 in 10.0 mi South 6.9 mph - N/A   Overcast
10:51 AM 75.0 °F - 66.9 °F 76% 30.04 in 10.0 mi SSW 8.1 mph - N/A   Mostly Cloudy
11:18 AM 75.2 °F - 66.2 °F 73% 30.04 in 10.0 mi South 8.1 mph - N/A   Mostly Cloudy
11:51 AM 77.0 °F - 66.9 °F 71% 30.03 in 10.0 mi SSW 6.9 mph - N/A   Mostly Cloudy
12:51 PM 79.0 °F - 68.0 °F 69% 30.03 in 10.0 mi SSE 6.9 mph - N/A   Overcast
1:32 PM 77.0 °F - 66.2 °F 69% 30.03 in 10.0 mi South 4.6 mph - N/A   Overcast
1:51 PM 79.0 °F - 68.0 °F 69% 30.02 in 10.0 mi SSW 9.2 mph - N/A   Overcast
2:02 PM 78.8 °F - 66.2 °F 65% 30.02 in 10.0 mi SSW 8.1 mph - N/A   Overcast
2:51 PM 82.9 °F 85.0 °F 66.0 °F 56% 30.01 in 10.0 mi SSW 8.1 mph 18.4 mph N/A   Partly Cloudy
3:51 PM 81.0 °F 83.8 °F 68.0 °F 65% 30.01 in 10.0 mi SSW 11.5 mph - N/A   Mostly Cloudy
4:51 PM 80.1 °F 82.1 °F 66.0 °F 62% 30.00 in 10.0 mi South 8.1 mph - N/A   Overcast
5:51 PM 80.1 °F 82.3 °F 66.9 °F 64% 29.99 in 10.0 mi South 11.5 mph - N/A   Clear
6:51 PM 77.0 °F - 68.0 °F 74% 29.99 in 10.0 mi South 5.8 mph - N/A   Clear
7:51 PM 75.0 °F - 69.1 °F 82% 30.00 in 10.0 mi SSE 5.8 mph - N/A   Partly Cloudy
8:51 PM 73.9 °F - 69.1 °F 85% 30.01 in 10.0 mi SSE 5.8 mph - N/A   Clear
9:51 PM 73.9 °F - 69.1 °F 85% 30.02 in 10.0 mi SSE 3.5 mph - N/A   Clear
10:51 PM 73.0 °F - 70.0 °F 90% 30.01 in 10.0 mi South 4.6 mph - N/A   Clear
11:51 PM 73.0 °F - 69.1 °F 87% 30.00 in 10.0 mi South 5.8 mph - N/A   Scattered Clouds